Tiempo cada hora Almargen

Hoy, 28 Julio, Miércoles

Tiempo Temperatura Precipitaciones Viento Presión Humedad
00:00 +23°C° 0 mm 2 mps 706 mmHg 55%
01:00 +21°C° 0 mm 2 mps 706 mmHg 56%
02:00 +22°C° 0 mm 1 mps 706 mmHg 57%
03:00 +21°C° 0 mm 1 mps 705 mmHg 57%
04:00 +21°C° 0 mm 1 mps 705 mmHg 58%
05:00 +21°C° 0 mm 1 mps 705 mmHg 58%
06:00 +21°C° 0 mm 1 mps 706 mmHg 58%
07:00 +24°C° 0 mm 1 mps 706 mmHg 49%
08:00 +27°C° 0 mm 2 mps 706 mmHg 40%
09:00 +29°C° 0 mm 2 mps 707 mmHg 31%
10:00 +31°C° 0 mm 2 mps 707 mmHg 28%
11:00 +34°C° 0 mm 3 mps 707 mmHg 24%
12:00 +36°C° 0 mm 3 mps 707 mmHg 21%
13:00 +36°C° 0 mm 3 mps 707 mmHg 20%
14:00 +37°C° 0 mm 3 mps 707 mmHg 20%
15:00 +37°C° 0 mm 3 mps 707 mmHg 19%
16:00 +37°C° 0 mm 3 mps 707 mmHg 20%
17:00 +36°C° 0 mm 3 mps 706 mmHg 22%
18:00 +35°C° 0 mm 3 mps 706 mmHg 23%
19:00 +31°C° 0 mm 3 mps 706 mmHg 30%
20:00 +28°C° 0 mm 3 mps 707 mmHg 38%
21:00 +26°C° 0 mm 2 mps 707 mmHg 45%
22:00 +25°C° 0 mm 2 mps 707 mmHg 50%
23:00 +24°C° 0 mm 2 mps 707 mmHg 54%

Mañana, 29 Julio, Jueves

Tiempo Temperatura Precipitaciones Viento Presión Humedad
00:00 +23°C° 0 mm 2 mps 707 mmHg 59%
01:00 +21°C° 0 mm 2 mps 707 mmHg 61%
02:00 +21°C° 0 mm 2 mps 706 mmHg 63%
03:00 +20°C° 0 mm 2 mps 706 mmHg 65%
04:00 +20°C° 0 mm 2 mps 706 mmHg 65%
05:00 +21°C° 0 mm 1 mps 706 mmHg 64%
06:00 +21°C° 0 mm 1 mps 707 mmHg 63%
07:00 +24°C° 0 mm 2 mps 707 mmHg 54%
08:00 +27°C° 0 mm 2 mps 708 mmHg 45%
09:00 +29°C° 0 mm 2 mps 708 mmHg 35%
10:00 +31°C° 0 mm 2 mps 708 mmHg 31%
11:00 +34°C° 0 mm 3 mps 708 mmHg 27%
12:00 +36°C° 0 mm 3 mps 708 mmHg 23%
13:00 +37°C° 0 mm 4 mps 708 mmHg 22%
14:00 +38°C° 0 mm 4 mps 708 mmHg 21%
15:00 +40°C° 0 mm 5 mps 707 mmHg 19%
16:00 +39°C° 0 mm 5 mps 707 mmHg 21%
17:00 +36°C° 0 mm 5 mps 707 mmHg 24%
18:00 +35°C° 0 mm 5 mps 707 mmHg 26%
19:00 +33°C° 0 mm 4 mps 707 mmHg 34%
20:00 +29°C° 0 mm 3 mps 707 mmHg 42%
21:00 +26°C° 0 mm 1 mps 708 mmHg 49%
22:00 +26°C° 0 mm 1 mps 707 mmHg 51%
23:00 +25°C° 0 mm 1 mps 707 mmHg 53%

Pasado mañana, 30 Julio, Viernes

Tiempo Temperatura Precipitaciones Viento Presión Humedad
00:00 +24°C° 0 mm 1 mps 707 mmHg 55%
01:00 +24°C° 0 mm 1 mps 707 mmHg 54%
02:00 +24°C° 0 mm 1 mps 707 mmHg 54%
03:00 +24°C° 0 mm 1 mps 706 mmHg 53%
04:00 +24°C° 0 mm 1 mps 706 mmHg 52%
05:00 +24°C° 0 mm 1 mps 707 mmHg 52%
06:00 +24°C° 0 mm 1 mps 707 mmHg 51%
07:00 +26°C° 0 mm 1 mps 707 mmHg 42%
08:00 +29°C° 0 mm 1 mps 708 mmHg 33%
09:00 +32°C° 0 mm 1 mps 708 mmHg 23%
10:00 +35°C° 0 mm 2 mps 708 mmHg 19%
11:00 +37°C° 0 mm 3 mps 708 mmHg 15%
12:00 +40°C° 0 mm 4 mps 708 mmHg 11%
13:00 +40°C° 0 mm 5 mps 708 mmHg 10%
14:00 +41°C° 0 mm 5 mps 708 mmHg 9%
15:00 +41°C° 0 mm 6 mps 708 mmHg 8%
16:00 +40°C° 0 mm 6 mps 707 mmHg 8%
17:00 +39°C° 0 mm 5 mps 707 mmHg 9%
18:00 +37°C° 0 mm 5 mps 707 mmHg 9%
19:00 +34°C° 0 mm 4 mps 707 mmHg 14%
20:00 +31°C° 0 mm 3 mps 707 mmHg 19%
21:00 +28°C° 0 mm 2 mps 707 mmHg 24%
22:00 +27°C° 0 mm 2 mps 707 mmHg 25%
23:00 +27°C° 0 mm 2 mps 707 mmHg 27%

31 Julio, Sábado

Tiempo Temperatura Precipitaciones Viento Presión Humedad
00:00 +26°C° 0 mm 2 mps 707 mmHg 29%
01:00 +25°C° 0 mm 2 mps 707 mmHg 32%
02:00 +25°C° 0 mm 2 mps 706 mmHg 35%
03:00 +24°C° 0 mm 2 mps 706 mmHg 39%
04:00 +23°C° 0 mm 1 mps 706 mmHg 39%
05:00 +23°C° 0 mm 1 mps 706 mmHg 40%
06:00 +23°C° 0 mm 1 mps 706 mmHg 41%
07:00 +25°C° 0 mm 2 mps 706 mmHg 34%
08:00 +27°C° 0 mm 3 mps 707 mmHg 27%
09:00 +29°C° 0 mm 3 mps 707 mmHg 19%
10:00 +30°C° 0 mm 4 mps 707 mmHg 17%
11:00 +33°C° 0 mm 5 mps 707 mmHg 14%
12:00 +34°C° 0 mm 6 mps 707 mmHg 11%
13:00 +34°C° 0 mm 7 mps 707 mmHg 12%
14:00 +34°C° 0 mm 8 mps 707 mmHg 13%
15:00 +35°C° 0 mm 8 mps 706 mmHg 13%
16:00 +33°C° 0 mm 8 mps 706 mmHg 17%
17:00 +32°C° 0 mm 8 mps 706 mmHg 20%
18:00 +29°C° 0 mm 7 mps 706 mmHg 23%
19:00 +27°C° 0 mm 6 mps 706 mmHg 28%
20:00 +25°C° 0 mm 5 mps 706 mmHg 33%
21:00 +22°C° 0 mm 4 mps 707 mmHg 38%
22:00 +22°C° 0 mm 3 mps 707 mmHg 38%
23:00 +21°C° 0 mm 3 mps 707 mmHg 38%

1 Agosto, Domingo

Tiempo Temperatura Precipitaciones Viento Presión Humedad
00:00 +21°C° 0 mm 3 mps 707 mmHg 39%
01:00 +20°C° 0 mm 2 mps 706 mmHg 40%
02:00 +20°C° 0 mm 2 mps 706 mmHg 41%
03:00 +19°C° 0 mm 2 mps 706 mmHg 42%
04:00 +19°C° 0 mm 2 mps 706 mmHg 43%
05:00 +18°C° 0 mm 2 mps 706 mmHg 45%
06:00 +18°C° 0 mm 2 mps 706 mmHg 46%
07:00 +20°C° 0 mm 2 mps 706 mmHg 39%
08:00 +22°C° 0 mm 3 mps 707 mmHg 33%
09:00 +25°C° 0 mm 3 mps 707 mmHg 26%
10:00 +27°C° 0 mm 3 mps 707 mmHg 24%
11:00 +29°C° 0 mm 4 mps 707 mmHg 21%
12:00 +30°C° 0 mm 4 mps 707 mmHg 18%
13:00 +32°C° 0 mm 5 mps 707 mmHg 18%
14:00 +32°C° 0 mm 5 mps 707 mmHg 18%
15:00 +32°C° 0 mm 5 mps 707 mmHg 18%
16:00 +30°C° 0 mm 5 mps 706 mmHg 20%
17:00 +29°C° 0 mm 5 mps 706 mmHg 22%
18:00 +29°C° 0 mm 5 mps 706 mmHg 24%
19:00 +27°C° 0 mm 4 mps 706 mmHg 29%
20:00 +24°C° 0 mm 3 mps 706 mmHg 34%
21:00 +21°C° 0 mm 2 mps 706 mmHg 38%
22:00 +21°C° 0 mm 2 mps 706 mmHg 36%
23:00 +21°C° 0 mm 2 mps 706 mmHg 34%

2 Agosto, Lunes

Tiempo Temperatura Precipitaciones Viento Presión Humedad
00:00 +21°C° 0 mm 2 mps 706 mmHg 32%
01:00 +21°C° 0 mm 1 mps 706 mmHg 35%
02:00 +20°C° 0 mm 1 mps 706 mmHg 37%
03:00 +19°C° 0 mm 1 mps 705 mmHg 40%
04:00 +19°C° 0 mm 1 mps 705 mmHg 40%
05:00 +19°C° 0 mm 1 mps 706 mmHg 41%
06:00 +19°C° 0 mm 1 mps 706 mmHg 42%
07:00 +21°C° 0 mm 1 mps 706 mmHg 36%
08:00 +24°C° 0 mm 1 mps 706 mmHg 29%
09:00 +27°C° 0 mm 1 mps 707 mmHg 23%
10:00 +29°C° 0 mm 2 mps 706 mmHg 20%
11:00 +30°C° 0 mm 2 mps 706 mmHg 18%
12:00 +33°C° 0 mm 3 mps 706 mmHg 15%
13:00 +34°C° 0 mm 4 mps 706 mmHg 14%
14:00 +34°C° 0 mm 4 mps 706 mmHg 13%
15:00 +35°C° 0 mm 5 mps 705 mmHg 12%
16:00 +34°C° 0 mm 5 mps 705 mmHg 13%
17:00 +33°C° 0 mm 5 mps 705 mmHg 14%
18:00 +33°C° 0 mm 5 mps 705 mmHg 14%
19:00 +29°C° 0 mm 4 mps 705 mmHg 21%
20:00 +26°C° 0 mm 3 mps 705 mmHg 27%
21:00 +24°C° 0 mm 2 mps 705 mmHg 34%
22:00 +23°C° 0 mm 2 mps 705 mmHg 34%
23:00 +23°C° 0 mm 2 mps 705 mmHg 35%
Mostrar más

Necesitamos Su Consentimiento

Meteoprog y nuestros Proveedores de Servicios pueden almacenar y acceder a sus datos personales como cookies, identificadores de dispositivo u otras tecnologías similares de su dispositivo y procesar dichos datos para personalizar contenido y anuncios, además de ofrecer funciones de redes sociales y analizar el tráfico.

  • Almacenar y/o acceder a información en su dispositivo

    Se puede almacenar o acceder a cookies, identificadores de dispositivo u otra información de su dispositivo para los fines anteriormente indicados.

  • Anuncios y contenido personalizados, medición de anuncios y contenido, percepciones del público, y desarrollo de productos

    Los anuncios y el contenido pueden personalizarse en base a su perfil. Se pueden añadir más datos para personalizar mejor los anuncios y contenidos. Se puede medir el rendimiento de los anuncios y contenidos. Se puede obtener la percepción sobre el público que ha visto los anuncios y contenidos. Dichos datos pueden usarse para desarrollar o mejorar la experiencia del usuario, sistemas y software.

Al hacer clic en ‘Estoy De Acuerdo’ usted permitirá el uso de las cookies, identificadores de dispositivo, balizas web u otras tecnologías similares indicadas. Su configuración puede cambiarse desde el navegador de su dispositivo.

Para ciertos fines, los intereses legítimos pueden ser considerados por encima del consentimiento. Puede leer más sobre ello en nuestra Política de Privacidad y Cookies.